Date String (YYYY-MM-DD hh:mm:ss) UTC,Instrument flags,absolute air pressure of the measurement (hPa),sample flow rate (lpm),inlet stack bypass flow (lpm),air temperature of the measurement (°C),ambient temperature measured by the external sensor (°C),aerosol sample conditioner tube jacket temperature (°C),OPC LED temperature (°C),internal box temperature (°C),relative humidity of the measurement (%),span deviation,mass concentration of particles derived from Lorenz-Mie calculation of OPC scattering (μg/m³),mass concentration of particles derived from Lorenz-Mie calculation of OPC scattering (μg/m³),mass concentration of particles derived from Lorenz-Mie calculation of OPC scattering (μg/m³)
DateTimeUTC,F1_M11,P_M11,Q1_M11,Q2_M11,T1_M11,T2_M11,T3_M11,T4_M11,T5_M11,U1_M11,ZSPAN_M11,X2_M11,X0_M11,X1_M11
2023-10-23 02:00:00,SystemResetWarning,0824.9,5.00,000.00,028.6,027.5,000.0,037.0,030.4,15.4,0000.0,0005.44,0016.67,0003.70
2023-10-23 02:01:00,SystemResetWarning,0824.9,5.00,000.00,028.7,027.4,000.0,037.0,030.4,15.3,0000.0,0005.47,0016.47,0003.71
2023-10-23 02:02:00,SystemResetWarning,0824.9,4.99,000.00,028.6,025.5,000.0,036.9,030.3,15.3,0000.0,0005.47,0016.92,0003.72
2023-10-23 02:03:00,SystemResetWarning,0824.9,5.01,000.00,028.5,024.4,000.0,036.9,030.1,15.3,0000.0,0005.54,0017.68,0003.72
2023-10-23 02:04:00,SystemResetWarning,0824.9,5.01,000.00,028.4,024.4,000.0,036.8,029.9,15.4,0000.0,0005.60,0018.71,0003.72
2023-10-23 02:05:00,SystemResetWarning,0824.9,5.00,000.00,028.3,024.7,000.0,036.8,029.8,15.5,0000.0,0005.65,0018.87,0003.73
2023-10-23 02:06:00,SystemResetWarning,0824.9,5.00,000.00,028.3,025.1,000.0,036.8,029.8,15.6,0000.0,0005.67,0019.76,0003.73
2023-10-23 02:07:00,SystemResetWarning,0824.9,5.01,000.00,028.3,025.5,000.0,036.8,029.9,15.6,0000.0,0005.68,0019.86,0003.73
2023-10-23 02:08:00,SystemResetWarning,0824.9,5.00,000.00,028.3,025.8,000.0,036.8,029.9,15.6,0000.0,0005.70,0019.90,0003.74
2023-10-23 02:09:00,SystemResetWarning,0824.9,4.99,000.00,028.3,026.1,000.0,036.8,029.9,15.6,0000.0,0005.67,0020.77,0003.75
2023-10-23 02:10:00,SystemResetWarning,0824.9,5.00,000.00,028.3,026.3,000.0,036.8,030.0,15.5,0000.0,0005.70,0021.39,0003.76
2023-10-23 02:11:00,SystemResetWarning,0824.9,5.00,000.00,028.3,026.5,000.0,036.8,030.0,15.5,0000.0,0005.74,0022.06,0003.75
2023-10-23 02:12:00,SystemResetWarning,0824.9,4.99,000.00,028.3,026.7,000.0,036.8,030.0,15.5,0000.0,0005.65,0022.71,0003.74
2023-10-23 02:13:00,SystemResetWarning,0824.9,5.01,000.00,028.3,026.8,000.0,036.8,030.1,15.5,0000.0,0005.63,0022.70,0003.73
2023-10-23 02:14:00,SystemResetWarning,0824.9,5.01,000.00,028.4,026.9,000.0,036.8,030.1,15.4,0000.0,0005.58,0022.79,0003.72
2023-10-23 02:15:00,SystemResetWarning,0824.9,5.00,000.00,028.4,027.0,000.0,036.8,030.1,15.4,0000.0,0005.54,0022.07,0003.72
2023-10-23 02:16:00,SystemResetWarning,0824.9,5.01,000.00,028.4,027.1,000.0,036.9,030.2,15.4,0000.0,0005.53,0021.64,0003.71
2023-10-23 02:17:00,SystemResetWarning,0824.9,4.99,000.00,028.4,027.2,000.0,036.9,030.2,15.4,0000.0,0005.47,0020.89,0003.70
2023-10-23 02:18:00,SystemResetWarning,0824.9,4.99,000.00,028.5,027.2,000.0,036.9,030.2,15.3,0000.0,0005.45,0019.59,0003.69
2023-10-23 02:19:00,SystemResetWarning,0824.9,5.01,000.00,028.5,027.3,000.0,036.9,030.2,15.3,0000.0,0005.42,0018.76,0003.69
2023-10-23 02:20:00,SystemResetWarning,0824.9,5.00,000.00,028.5,027.4,000.0,036.9,030.3,15.2,0000.0,0005.46,0018.69,0003.67
2023-10-23 02:21:00,SystemResetWarning,0824.8,5.01,000.00,028.6,027.4,000.0,036.9,030.3,15.2,0000.0,0005.41,0018.61,0003.66
2023-10-23 02:22:00,SystemResetWarning,0824.9,5.00,000.00,028.6,027.4,000.0,037.0,030.3,15.2,0000.0,0005.35,0018.00,0003.67
2023-10-23 02:23:00,SystemResetWarning,0824.9,5.00,000.00,028.6,027.5,000.0,037.0,030.4,15.1,0000.0,0005.37,0018.25,0003.68
2023-10-23 02:24:00,SystemResetWarning,0824.9,5.00,000.00,028.7,027.5,000.0,037.0,030.4,15.1,0000.0,0005.41,0017.63,0003.68
2023-10-23 02:25:00,SystemResetWarning,0824.9,5.00,000.00,028.7,027.6,000.0,037.0,030.4,15.1,0000.0,0005.40,0017.37,0003.68
2023-10-23 02:26:00,SystemResetWarning,0824.9,5.00,000.00,028.7,027.6,000.0,037.0,030.4,15.1,0000.0,0005.42,0016.98,0003.68
2023-10-23 02:27:00,SystemResetWarning,0824.9,4.98,000.00,028.7,026.8,000.0,037.0,030.4,15.0,0000.0,0005.40,0016.79,0003.68
2023-10-23 02:28:00,SystemResetWarning,0824.9,5.00,000.00,028.7,024.9,000.0,037.0,030.2,15.0,0000.0,0005.40,0017.57,0003.69
2023-10-23 02:29:00,SystemResetWarning,0824.8,5.01,000.00,028.6,024.4,000.0,036.9,030.0,15.1,0000.0,0005.39,0017.66,0003.70
2023-10-23 02:30:00,SystemResetWarning,0824.9,5.01,000.00,028.4,024.5,000.0,036.9,029.8,15.3,0000.0,0005.46,0018.05,0003.70
2023-10-23 02:31:00,SystemResetWarning,0824.9,5.00,000.00,028.3,024.9,000.0,036.9,029.8,15.3,0000.0,0005.39,0018.13,0003.70
2023-10-23 02:32:00,SystemResetWarning,0824.9,4.99,000.00,028.3,025.2,000.0,036.9,029.8,15.3,0000.0,0005.41,0017.48,0003.71
2023-10-23 02:33:00,SystemResetWarning,0824.9,5.00,000.00,028.3,025.6,000.0,036.9,029.9,15.4,0000.0,0005.42,0017.85,0003.71
2023-10-23 02:34:00,SystemResetWarning,0824.9,5.00,000.00,028.3,025.9,000.0,036.9,029.9,15.4,0000.0,0005.39,0017.09,0003.70
2023-10-23 02:35:00,SystemResetWarning,0824.9,4.99,000.00,028.3,026.2,000.0,036.9,029.9,15.4,0000.0,0005.34,0016.75,0003.69
2023-10-23 02:36:00,SystemResetWarning,0824.9,5.00,000.00,028.3,026.4,000.0,036.9,030.0,15.4,0000.0,0005.30,0016.57,0003.70
2023-10-23 02:37:00,SystemResetWarning,0824.9,5.00,000.00,028.3,026.6,000.0,036.8,030.0,15.3,0000.0,0005.31,0016.21,0003.71
2023-10-23 02:38:00,SystemResetWarning,0824.9,5.00,000.00,028.3,026.7,000.0,036.8,030.1,15.3,0000.0,0005.27,0016.26,0003.70
2023-10-23 02:39:00,SystemResetWarning,0824.9,5.00,000.00,028.3,026.8,000.0,036.9,030.1,15.3,0000.0,0005.28,0016.18,0003.71
2023-10-23 02:40:00,SystemResetWarning,0824.9,5.00,000.00,028.4,026.9,000.0,036.9,030.1,15.3,0000.0,0005.36,0016.94,0003.73
2023-10-23 02:41:00,SystemResetWarning,0824.9,5.01,000.00,028.4,027.0,000.0,036.9,030.1,15.3,0000.0,0005.29,0017.18,0003.72
2023-10-23 02:42:00,SystemResetWarning,0824.9,5.00,000.00,028.4,027.1,000.0,036.9,030.1,15.2,0000.0,0005.25,0016.00,0003.72
2023-10-23 02:43:00,SystemResetWarning,0824.9,5.00,000.00,028.4,027.1,000.0,036.9,030.2,15.1,0000.0,0005.21,0016.08,0003.72
2023-10-23 02:44:00,SystemResetWarning,0824.9,5.00,000.00,028.5,027.2,000.0,036.9,030.2,15.1,0000.0,0005.18,0016.27,0003.72
2023-10-23 02:45:00,SystemResetWarning,0824.9,5.00,000.00,028.5,027.3,000.0,036.9,030.2,15.1,0000.0,0005.24,0017.20,0003.73
2023-10-23 02:46:00,SystemResetWarning,0824.9,5.00,000.00,028.5,027.3,000.0,036.9,030.2,15.1,0000.0,0005.27,0017.95,0003.74
2023-10-23 02:47:00,SystemResetWarning,0824.9,5.00,000.00,028.6,027.3,000.0,036.9,030.3,15.0,0000.0,0005.27,0017.65,0003.74
2023-10-23 02:48:00,SystemResetWarning,0824.9,5.00,000.00,028.6,027.4,000.0,036.9,030.3,14.9,0000.0,0005.25,0017.93,0003.74
2023-10-23 02:49:00,SystemResetWarning,0825.0,5.00,000.00,028.6,027.4,000.0,037.0,030.3,14.9,0000.0,0005.29,0018.95,0003.73
2023-10-23 02:50:00,SystemResetWarning,0824.9,5.00,000.00,028.6,027.5,000.0,037.0,030.3,14.9,0000.0,0005.35,0018.75,0003.74
2023-10-23 02:51:00,SystemResetWarning,0824.9,5.00,000.00,028.7,027.5,000.0,037.0,030.3,14.8,0000.0,0005.36,0018.31,0003.72
2023-10-23 02:52:00,SystemResetWarning,0824.9,4.99,000.00,028.7,027.5,000.0,037.0,030.4,14.8,0000.0,0005.40,0019.53,0003.72
2023-10-23 02:53:00,SystemResetWarning,0824.9,5.00,000.00,028.7,027.5,000.0,037.0,030.4,14.8,0000.0,0005.46,0020.84,0003.73
2023-10-23 02:54:00,SystemResetWarning,0824.9,5.00,000.00,028.7,027.6,000.0,037.1,030.4,14.7,0000.0,0005.51,0021.28,0003.73
2023-10-23 02:55:00,SystemResetWarning,0824.9,4.99,000.00,028.8,027.6,000.0,037.1,030.5,14.7,0000.0,0005.55,0021.39,0003.74
2023-10-23 02:56:00,SystemResetWarning,0824.9,4.99,000.00,028.8,027.6,000.0,037.1,030.5,14.6,0000.0,0005.58,0021.99,0003.74
2023-10-23 02:57:00,SystemResetWarning,0824.9,5.00,000.00,028.8,027.6,000.0,037.1,030.5,14.6,0000.0,0005.58,0022.34,0003.74
2023-10-23 02:58:00,SystemResetWarning,0824.9,5.00,000.00,028.8,027.7,000.0,037.1,030.5,14.6,0000.0,0005.63,0022.43,0003.74
2023-10-23 02:59:00,SystemResetWarning,0824.9,4.99,000.00,028.8,026.8,000.0,037.1,030.5,14.6,0000.0,0005.65,0021.87,0003.74
